Location: Doverdale
(52.2833°N, 2.2000°W)
Time: 12:00:18
(UTC+00:00)

Cosmos 1697 Rocket - Pass Details

Date: 29 October 2020
Orbit: 831 x 845 km, 71.0° (Epoch: 24 November)

Event Time Altitude Azimuth Distance (km) Brightness Sun altitude
Rises 20:34:48 0° 247° (WSW) 3,377 6.3 -35.1°
Reaches altitude 10° 20:37:32 10° 258° (WSW) 2,448 5.6 -35.5°
Maximum altitude 20:42:25 30° 319° (NW) 1,471 4.3 -36.2°
Enters shadow 20:43:19 28° 336° (NNW) 1,516 4.3 -36.3°
